Regional Weather Roundup
Issued by NWS Little Rock, AR

Home | Current Version | Previous Version | Graphics & Text | Print | Product List | Glossary On
Versions: 1 2 3 4 5 6 7 8 9 10 11 12 13 14 15 16 17 18 19 20 21 22 23 24 25 26 27 28 29 30 31 32 33 34 35 36 37 38 39 40 41 42 43 44 45 46 47 48 49 50
003
ASUS44 KLZK 261405
RWRLZK

WEATHER ROUNDUP FOR ARKANSAS
NATIONAL WEATHER SERVICE LITTLE ROCK AR
800 AM CST SUN FEB 26 2017

NOTE: "FAIR" INDICATES FEW OR NO CLOUDS BELOW 12,000 FEET WITH NO
SIGNIFICANT WEATHER AND/OR OBSTRUCTIONS TO VISIBILITY.

ARZ001-003-010-029-261500-
NORTHWEST ARKANSAS

CITY           SKY/WX    TMP DP  RH WIND       PRES   REMARKS
FAYETTEVILLE   CLOUDY    30  28  92 CALM      30.05R FOG
FORT SMITH     MOSUNNY   37  28  70 E10       30.07R
HARRISON       CLOUDY    32  21  64 CALM      30.08R
BENTONVILLE    CLOUDY    36  21  55 SE5       30.05R
ROGERS         CLOUDY    36  24  62 SE8       30.05S
SILOAM SPGS    CLOUDY    36  21  55 E6        30.03R
HIGHFILL       CLOUDY    34  25  69 E5        30.03S WCI  30
SPRINGDALE     PTSUNNY   36  21  55 E6        30.06R
$$

ARZ004-005-016-261500-
NORTH CENTRAL ARKANSAS

CITY           SKY/WX    TMP DP  RH WIND       PRES   REMARKS
BATESVILLE     MOSUNNY   34  27  75 E5        30.17R WCI  30
FLIPPIN        MOSUNNY   28  21  74 CALM      30.08R
MTN HOME       MOSUNNY   34  22  61 S7        30.08F WCI  28
$$

ARZ040-041-261500-
WEST CENTRAL ARKANSAS

CITY           SKY/WX    TMP DP  RH WIND       PRES   REMARKS
MENA           MOSUNNY   32  32 100 CALM      30.09R
MOUNT IDA      MOSUNNY   31  27  85 CALM      30.08S FOG
$$

ARZ009-017-025-026-028-261500-
NORTHEAST ARKANSAS

CITY           SKY/WX    TMP DP  RH WIND       PRES   REMARKS
CORNING        FAIR      36  28  75 SE7       30.18S
JONESBORO      SUNNY     35  29  78 E5        30.18R WCI  31
NEWPORT        SUNNY     34  30  85 CALM      30.18R
WALNUT RIDGE   MOSUNNY   36  25  64 E3        30.17R
BLYTHEVILLE    SUNNY     36  28  73 SE6       30.20R
$$

ARZ022-023-033-042-044-261500-
CENTRAL ARKANSAS

CITY           SKY/WX    TMP DP  RH WIND       PRES   REMARKS
LITTLE ROCK    MOSUNNY   37  32  82 S3        30.17R
N LITTLE ROCK    N/A     40  29  65 S5        30.18R
JACKSONVILLE   SUNNY     37  31  79 E3        30.15R
SEARCY         MOSUNNY   33  32  96 NE5       30.19R WCI  29
HOT SPRINGS    SUNNY     39  26  59 E6        30.12S
RUSSELLVILLE   MOSUNNY   37  27  67 VRB6      30.11S
CLINTON        FAIR      30  25  80 CALM      30.15F
$$

ARZ036-261500-
EAST ARKANSAS

CITY           SKY/WX    TMP DP  RH WIND       PRES   REMARKS
WEST MEMPHIS   SUNNY     37  29  72 SE7       30.18R
$$

ARZ050-053-066-070-073-261500-
SOUTHWEST ARKANSAS

CITY           SKY/WX    TMP DP  RH WIND       PRES   REMARKS
ARKADELPHIA    FAIR      36  31  82 E3        30.14R
CAMDEN         SUNNY     37  27  65 SE3       30.14R
TEXARKANA      SUNNY     40  29  64 SE8       30.10R
EL DORADO      SUNNY     41  28  60 SE9       30.12R
DE QUEEN       SUNNY     37  30  75 NE5       30.09R
$$

ARZ056-057-069-261500-
SOUTHEAST ARKANSAS

CITY           SKY/WX    TMP DP  RH WIND       PRES   REMARKS
PINE BLUFF     SUNNY     37  32  82 E6        30.16R
STUTTGART      SUNNY     39  23  52 SE9       30.18R
MONTICELLO     SUNNY     38  30  73 E6        30.15S

$$






USA.gov is the U.S. government's official web portal to all federal, state and local government web resources and services.